Regional Weather Roundup
Issued by NWS

Home | Current Version | Previous Version | Graphics & Text | Print | Product List | Glossary On
Versions: 1 2 3 4 5 6 7 8 9 10 11 12 13 14 15 16 17 18 19 20 21 22 23 24 25 26 27 28 29 30 31 32 33 34 35 36 37 38 39 40 41 42 43 44 45 46 47 48 49 50
000
ASUS43 KMPX 301910
RWRMN
WEATHER ROUNDUP FOR MINNESOTA
NATIONAL WEATHER SERVICE TWIN CITIES/CHANHASSEN MN
200 PM CDT TUE AUG 30 2016


NOTE: "FAIR" INDICATES FEW OR NO CLOUDS BELOW 12,000 FEET WITH NO
SIGNIFICANT WEATHER AND/OR OBSTRUCTIONS TO VISIBILITY. N/A MEANS
CURRENT SKY AND/OR WEATHER CONDITIONS ARE NOT AVAILABLE.

MNZ060>063-068>070-302000-
   Twin Cities Metro

CITY           SKY/WX    TMP DP  RH WIND       PRES   REMARKS
TWIN CITIES    CLOUDY    77  59  53 VRB3      30.18F
ST PAUL        PTSUNNY   76  59  55 NW10      30.18F
CRYSTAL        PTSUNNY   78  55  44 N7        30.17F
BLAINE         MOSUNNY   77  61  57 N6        30.18F
LAKEVILLE      CLOUDY    75  61  60 N3        30.19R
EDEN PRAIRIE   CLOUDY    77  59  53 NW7       30.18F
LAKEVILLE      CLOUDY    75  61  60 N3        30.19R
SOUTH ST PAUL  CLOUDY    76  57  51 N8        30.17F
LAKE ELMO      FAIR      75  63  64 N8        30.19S
$$
MNZ001>005-007-008-013>017-022>024-027-028-302000-
   Northwest Minnesota

CITY           SKY/WX    TMP DP  RH WIND       PRES   REMARKS
BEMIDJI        SUNNY     72  49  44 N10G16    30.23F
HALLOCK        SUNNY     73  48  40 NW5       30.22F
ROSEAU         SUNNY     73  52  46 W8        30.23S
WARROAD        SUNNY     72  55  56 W10       30.22F
THIEF RVR FALL SUNNY     73  51  46 VRB6      30.24F
CROOKSTON      SUNNY     75  48  38 NW5       30.24S
FOSSTON        SUNNY     73  52  46 W7        30.25F
DETROIT LAKES  SUNNY     72  54  53 N7        30.26S
MOORHEAD       SUNNY     79  50  36 NW8       30.24S
MAHNOMEN       FAIR      72  53  50 NW7       30.24F
$$
MNZ006-009>011-018-025>026-302000-
   North Central Minnesota

CITY           SKY/WX    TMP DP  RH WIND       PRES   REMARKS
BAUDETTE       SUNNY     72  49  44 NW12      30.21F
FLAG ISLAND    SUNNY     70  45  40 NW5       30.20S
INTL FALLS     SUNNY     72  51  47 NW10      30.19F
WASKISH        SUNNY     72  52  49 W9        30.22F
BIG FORK       SUNNY     73  50  43 CALM      30.21S
LONGVILLE      SUNNY     73  54  49 W7        30.22S
GRAND RAPIDS   SUNNY     72  51  47 NW10      30.22F
CRANE LAKE     SUNNY     68  48  49 NW7       30.20S
ORR            SUNNY     72  46  40 NW8       30.17F
COOK           SUNNY     70  48  46 N7        30.20S
WALKER         FAIR      73  51  46 NW8       30.22S
$$
MNZ012-019>021-037-302000-
   Northeast Minnesota

CITY           SKY/WX    TMP DP  RH WIND       PRES   REMARKS
DULUTH         SUNNY     75  52  44 N9        30.17F
ELY            SUNNY     70  46  43 NW6       30.17F
HIBBING        SUNNY     69  47  45 N8        30.20S
EVELETH        SUNNY     73  50  43 NW9       30.20S
DULUTH HARBOR  SUNNY     73  61  64 E3        30.16F
TWO HARBORS    SUNNY     77  54  44 NW5       30.14F
SILVER BAY     SUNNY     72  61  68 S9        30.14F
GRAND MARAIS     N/A     69  54  58 SW12      30.12F
G MARAIS ARPRT SUNNY     70  43  37 NW5       30.17S
$$
MNZ029>031-032-039>041-046>048-054>057-064-302000-
   West Central Minnesota

CITY           SKY/WX    TMP DP  RH WIND       PRES   REMARKS
FERGUS FALLS   SUNNY     75  52  43 N8        30.23F
WHEATON        SUNNY     81  54  39 N7        30.23F
MORRIS         SUNNY     79  50  36 CALM      30.22S
ALEXANDRIA     SUNNY     76  49  38 N6        30.24F
ELBOW LAKE     FAIR      75  52  44 NE7       30.23F
WADENA         SUNNY     73  52  46 NW8       30.22F
GLENWOOD       SUNNY     75  54  46 NW3       30.23F
APPLETON       MOSUNNY   79  50  36 CALM      30.21F
BENSON         SUNNY     81  46  30 NE7       30.22S
ORTONVILLE     SUNNY     79  54  41 CALM      30.23S
MADISON        MOSUNNY   77  59  53 CALM      30.22S
WILLMAR        FAIR      77  54  44 CALM      30.23S
$$
MNZ033>034-036-042>043-049>051-058-059-302000-
   Central Minnesota

CITY           SKY/WX    TMP DP  RH WIND       PRES   REMARKS
ST CLOUD       MOSUNNY   75  52  44 NW5       30.20F
SAUK CENTRE    FAIR      74  51  44 NE5       30.23S
PAYNESVILLE    MOSUNNY   77  50  38 NW8       30.22F
AITKIN         SUNNY     79  43  27 N9        30.19S
PINE RIVER     SUNNY     73  54  49 N7        30.24F
BRAINERD       SUNNY     74  50  42 N6        30.21F
STAPLES        SUNNY     75  48  38 N6        30.22S
LONG PRAIRIE   FAIR      73  50  43 NW3       30.23S
LITTLE FALLS   SUNNY     73  45  35 CALM      30.22S
LITCHFIELD     SUNNY     75  59  57 N6        30.22S
BUFFALO        MOSUNNY   74  56  53 NW6       30.21S
MAPLE LAKE     SUNNY     76  61  60 N7        30.21F
HUTCHINSON     SUNNY     76  60  56 NW3       30.22F
$$
MNZ037-044-045-052-053-302000-
   East Central Minnesota

CITY           SKY/WX    TMP DP  RH WIND       PRES   REMARKS
PRINCETON      MOSUNNY   77  54  44 W6        30.20S
MORA           CLOUDY    73  50  43 CALM      30.21F
CAMBRIDGE      MOSUNNY   75  57  53 W7        30.18S
RUSH CITY      PTSUNNY   74  55  50 NW3       30.19F
MOOSE LAKE     SUNNY     73  54  49 NW3       30.17S
HINCKLEY       FAIR      75  54  46 NW5       30.18F
CLOQUET        SUNNY     73  48  40 NW8       30.18F
MCGREGOR       SUNNY     73  50  43 NW9       30.20S
$$
MNZ071>073-080-081-089-090-097-098-302000-
   Southwest Minnesota

CITY           SKY/WX    TMP DP  RH WIND       PRES   REMARKS
MONTEVIDEO     SUNNY     79  61  53 CALM      30.23F
GRANITE FALLS  SUNNY     79  60  52 N3        30.23F
CANBY          MOSUNNY   77  60  56 E3        30.24F
MARSHALL       MOSUNNY   76  64  66 VRB3      30.23F
REDWOOD FALLS  MOSUNNY   78  59  51 N6        30.21F
OLIVIA         SUNNY     73  57  56 N6        30.21F
WINDOM         CLOUDY    75  63  64 NW7       30.22F
WORTHINGTON    CLOUDY    73  66  78 N7        30.24S
JACKSON        PTSUNNY   73  64  73 VRB7      30.23S
TRACY          MOSUNNY   76  66  70 N3        30.23F
SLAYTON        CLOUDY    73  64  73 N6        30.24F
$$
MNZ065>067-074>077-082>085-091>093-302000-
   South Central Minnesota

CITY           SKY/WX    TMP DP  RH WIND       PRES   REMARKS
NEW ULM        CLOUDY    75  61  60 CALM      30.21F
ST JAMES       CLOUDY    73  66  78 CALM      30.22F
FAIRMONT       CLOUDY    76  67  73 N7        30.21F
GLENCOE        MOSUNNY   76  59  55 N6        30.20S
FARIBAULT      PTSUNNY   79  64  61 W3        30.19F
OWATONNA       MOSUNNY   79  64  61 N5        30.19S
WASECA         MOSUNNY   77  66  69 N7        30.21S
ALBERT LEA     MOSUNNY   75  66  73 N3        30.20S
$$
MNZ078>079-086>088-094>096-302000-
   Southeast Minnesota

CITY           SKY/WX    TMP DP  RH WIND       PRES   REMARKS
ROCHESTER      MOSUNNY   79  67  66 NW10      30.18F
RED WING       CLOUDY    79  61  53 NW7       30.14F
STANTON        CLOUDY    77  63  61 NE3       30.17S
DODGE CENTER   MOSUNNY   79  64  61 CALM      30.19F
WINONA         MOSUNNY   79  64  61 W7        30.14F
AUSTIN         MOSUNNY   77  66  69 N10       30.18F
PRESTON        MOSUNNY   76  64  65 W7        30.18S
$$
ABBREVIATIONS USED IN REMARKS
   TC - TEMPERATURES IN CELSIUS
  WCI - WIND CHILL INDEX
   HX - HEAT INDEX
  VSB - VISIBILITY
$$




USA.gov is the U.S. government's official web portal to all federal, state and local government web resources and services.